Tracking 35237 objects as of 5-Sep-2026
HD Live streaming from Space Station
objects crossing your sky now

PAINANI-2


PAINANI-2 is no longer on orbit


NORAD ID: 48928
Int'l Code: 2021-059BB
Launch date: June 30, 2021
Source: Mexico (MEX)
Launch site: AIR FORCE EASTERN TEST RANGE (AFETR)
Decay date: 2024-11-05
Your satellite tracking list
Your tracking list is empty




NASA's NSSDC Master Catalog

Two Line Element Set (TLE):
1 48928U 21059BB  24304.74185047  .09426271  26350-5  14582-2 0  9991
2 48928  97.6113 110.6204 0006187 272.6426  87.4161 16.34071995186743
Source of the keplerian elements: AFSPC